www.pogodaiklimat.ru

Погода и климат >> Архив погоды >> Норвегия >> Маяк Lista


ПОГОДА на Маяке Lista

  • Прогноз погоды на Маяке Lista
  • Монитор погоды на Маяке Lista

АРХИВ ПОГОДЫ на Маяке Lista

Время (UTC), дата Ветер
(напр.,м/с)
 
Видим.   Явления Облачность Т
(С)
Тd
(С)
f
(%)
Тe
(С)
Тes
(С)
Комфортность P
(гПа)
Po
(гПа)
Тmin
(С)
Tmax
(С)
R
(мм)
R24
(мм)
S
(см)
10 19.05 ЮВ 7-10
{10}
н/о н/о +17.9 +12.8 72 +17 +17 1011.5 1010.0
11 19.05 ЮВ 8-11
{11}
н/о н/о +16.7 +12.1 74 +15 +15 1011.8 1010.2
12 19.05 ЮВ 9-12
{12}
н/о н/о +16.5 +12.3 76 +15 +15 1011.9 1010.3
13 19.05 ЮВ 8-11
{12}
н/о н/о +16.5 +12.3 76 +15 +15 1011.8 1010.2
14 19.05 ЮВ 9-10
{12}
н/о н/о +17.6 +12.7 73 +16 +16 1011.7 1010.1
15 19.05 ЮВ 7-8
{11}
н/о н/о +17.8 +12.7 72 +17 +17 1011.3 1009.7
16 19.05 ЮВ 5-7
{7}
н/о н/о +17.8 +12.9 73 +17 +17 1011.1 1009.5
17 19.05 ЮВ 8-11
{11}
н/о н/о +16.0 +12.0 77 +14 +14 1011.1 1009.5
18 19.05 В 5-7
{12}
н/о н/о +15.2 +12.2 82 +14 +14 1011.3 1009.7 +15.0 +19.5
19 19.05 В 4-6
{7}
н/о н/о +15.2 +12.0 81 +14 +14 1011.5 1009.9 0.1
20 19.05 С 4-5
{5}
н/о н/о +12.2 +10.8 91 +10 +10 1012.0 1010.3 0.1
21 19.05 С 4-5
{5}
н/о н/о +11.7 +10.8 94 +9 +9 1011.9 1010.3
22 19.05 СВ 4-4
{5}
н/о н/о +11.5 +10.6 94 +9 +9 1011.8 1010.2
23 19.05 В 2-2
{4}
н/о н/о +13.8 +10.8 82 +13 +13 1011.8 1010.2
00 20.05 В 1-2
{7}
н/о н/о +13.2 +10.2 82 +13 +13 1011.6 1010.0
01 20.05 СВ 2-3
{3}
н/о н/о +13.7 +10.7 82 +13 +13 1011.1 1009.5
02 20.05 штиль 0-1
{2}
н/о н/о +13.4 +10.4 82 +13 +13 1011.1 1009.4
03 20.05 штиль 0-1
{3}
н/о н/о +13.9 +11.3 84 +14 +14 1010.8 1009.2
04 20.05 В 1-2
{3}
н/о н/о +14.7 +11.3 80 +15 +15 1010.7 1009.1
05 20.05 В 1-2
{4}
н/о н/о +16.7 +11.8 73 +18 +18 1010.7 1009.1
06 20.05 СВ 2-3
{4}
н/о н/о +17.5 +12.6 73 +18 +18 1010.7 1009.1 +11.4 +17.6 0.2
07 20.05 В 2-4
{5}
н/о н/о +19.7 +12.2 62 +22 +22 комфорт 1010.7 1009.2
08 20.05 В 6-9
{9}
н/о н/о +20.0 +9.9 52 +21 +21 комфорт 1010.5 1008.9
09 20.05 В 5-8
{9}
н/о н/о +21.3 +10.2 49 +23 +23 комфорт 1010.5 1008.9
10 20.05 С 5-7
{7}
н/о н/о +21.0 +9.6 48 +23 +23 комфорт 1010.4 1008.8
11 20.05 З 4-6
{7}
н/о н/о +15.7 +11.5 76 +15 +15 1010.5 1008.9 0.1
12 20.05 Ю 2-3
{9}
н/о н/о +16.9 +12.5 75 +17 +17 1010.7 1009.1
13 20.05 Ю 2-3
{4}
н/о н/о +16.6 +12.2 75 +17 +17 1010.5 1008.9
14 20.05 ЮВ 2-3
{3}
н/о н/о +16.8 +12.2 74 +17 +17 1010.3 1008.7
15 20.05 Ю 3-3
{4}
н/о н/о +16.0 +11.4 74 +16 +16 1010.2 1008.6
16 20.05 ЮВ 5-6
{6}
н/о н/о +14.9 +11.5 80 +13 +13 1010.4 1008.8
17 20.05 Ю 4-5
{6}
н/о н/о +14.0 +11.5 85 +13 +13 1010.1 1008.5
18 20.05 Ю 3-4
{6}
н/о н/о +14.0 +11.5 85 +13 +13 1009.8 1008.2 +13.7 +22.0 0.1
19 20.05 ЮВ 3-4
{5}
н/о н/о +13.5 +11.2 86 +12 +12 1009.9 1008.3 0.1
20 20.05 ЮВ 4-4
{5}
н/о н/о +12.5 +10.7 89 +11 +11 1010.3 1008.7 0.1
21 20.05 В 4-5
{6}
н/о н/о +11.4 +10.3 93 +9 +9 1010.8 1009.2
22 20.05 В 1-2
{4}
н/о н/о +10.9 +10.0 94 +10 +10 1010.8 1009.2
23 20.05 СВ 3-3
{4}
н/о н/о +10.5 +9.6 94 +8 +8 1010.4 1008.7
00 21.05 С 2-2
{6}
н/о н/о +11.3 +10.5 95 +10 +10 1010.3 1008.6
01 21.05 С 3-4
{4}
н/о н/о +11.3 +10.7 96 +9 +9 1010.3 1008.6
02 21.05 С 4-5
{5}
н/о н/о +11.7 +10.6 93 +9 +9 1010.2 1008.6
03 21.05 С 4-4
{5}
н/о н/о +11.3 +10.2 93 +9 +9 1010.3 1008.6
04 21.05 С 3-3
{4}
н/о н/о +11.5 +10.3 92 +10 +10 1010.4 1008.7
05 21.05 СВ 2-3
{4}
н/о н/о +12.6 +11.2 91 +12 +12 1010.5 1008.8
06 21.05 С 3-3
{5}
н/о н/о +12.8 +11.2 90 +11 +11 1010.5 1008.8 +10.3 +14.1 0.2
07 21.05 С 3-4
{4}
н/о н/о +13.3 +11.0 86 +12 +12 1010.6 1009.0
08 21.05 С 3-4
{5}
н/о н/о +14.6 +11.6 82 +14 +14 1010.6 1009.0
09 21.05 -4
{5}
н/о н/о +15.3 +11.5 78 1010.3 1008.7 0.1
10 21.05 С 4-6
{6}
н/о н/о +14.3 +11.6 84 +13 +13 1010.2 1008.6
11 21.05 С 4-6
{6}
н/о н/о +14.6 +11.9 84 +13 +13 1010.4 1008.7
12 21.05 С 3-5
{6}
н/о н/о +13.9 +12.0 88 +13 +13 1010.4 1008.8
13 21.05 СЗ 5-7
{7}
н/о н/о +12.9 +11.5 91 +11 +11 1010.3 1008.7
14 21.05 С 4-8
{8}
н/о н/о +11.7 +10.8 94 +9 +9 1010.5 1008.9
15 21.05 С 3-6
{7}
н/о н/о +11.5 +10.9 96 +10 +10 1010.6 1009.0 0.1
16 21.05 С 4-6
{8}
н/о н/о +11.3 +10.8 97 +9 +9 1010.2 1008.6 0.3
17 21.05 С 5-7
{7}
н/о н/о +11.2 +10.7 97 +8 +8 1010.1 1008.5 0.5
18 21.05 СЗ 5-8
{8}
н/о н/о +11.4 +11.1 98 +9 +9 1009.3 1007.7 +11.2 +16.5 1
19 21.05 СЗ 5-8
{10}
н/о н/о +11.1 +10.8 98 +8 +8 1009.4 1007.8
20 21.05 С 5-9
{9}
н/о н/о +10.9 +10.6 98 +8 +8 1009.6 1007.9
21 21.05 СЗ 7-9
{10}
н/о н/о +10.9 +10.6 98 +7 +7 1009.0 1007.4
22 21.05 СЗ 7-9
{10}
н/о н/о +10.6 +10.3 98 +7 +7 1009.0 1007.4
23 21.05 СЗ 6-8
{9}
н/о н/о +10.5 +10.2 98 +7 +7 1009.0 1007.3 0.1
00 22.05 СЗ 9-13
{13}
н/о н/о +10.3 +10.2 99 +6 +6 1008.7 1007.0
01 22.05 СЗ 9-11
{12}
н/о н/о +10.3 +10.2 99 +6 +6 1008.7 1007.0
02 22.05 СЗ 9-12
{12}
н/о н/о +10.2 +10.1 99 +6 +6 1008.5 1006.9
03 22.05 СЗ 11-13
{14}
н/о н/о +10.1 +10.0 99 +5 +5 1008.6 1007.0
04 22.05 СЗ 9-12
{13}
н/о н/о +10.1 +9.8 98 +6 +6 1008.7 1007.1
05 22.05 СЗ 8-11
{13}
н/о н/о +10.1 +9.8 98 +6 +6 1009.1 1007.5
06 22.05 СЗ 9-11
{14}
н/о н/о +10.1 +9.6 97 +6 +6 1009.4 1007.8 +10.0 +11.4 0.1
07 22.05 СЗ 11-13
{13}
н/о н/о +10.0 +9.6 97 +5 +5 1009.7 1008.1
08 22.05 СЗ 9-12
{13}
н/о н/о +10.1 +9.3 95 +6 +6 1010.0 1008.4
09 22.05 СЗ 9-12
{13}
н/о н/о +10.8 +9.7 93 +7 +7 1010.5 1008.8
10 22.05 СЗ 10-13
{13}
н/о н/о +10.4 +9.3 93 +6 +6 1010.7 1009.1
11 22.05 З 10-11
{13}
н/о н/о +10.3 +9.5 95 +6 +6 1011.3 1009.7
12 22.05 З 10-12
{13}
н/о н/о +10.7 +8.8 88 +6 +6 1011.6 1009.9
13 22.05 З 10-11
{14}
н/о н/о +10.7 +8.8 88 +6 +6 1012.0 1010.4
14 22.05 З 9-11
{11}
н/о н/о +11.0 +9.1 88 +7 +7 1012.2 1010.6
15 22.05 З 9-11
{11}
н/о н/о +11.0 +8.6 85 +7 +7 1012.2 1010.5
16 22.05 З 9-10
{11}
н/о н/о +10.7 +8.5 86 +7 +7 1012.5 1010.8
17 22.05 З 9-11
{11}
н/о н/о +10.9 +8.5 85 +7 +7 1012.6 1010.9
18 22.05 З 8-9
{14}
н/о н/о +10.5 +7.9 84 +7 +7 1012.6 1011.0 +11.2
19 22.05 З 8-9
{10}
н/о н/о +10.3 +7.6 83 +6 +6 1012.8 1011.2
20 22.05 ЮЗ 7-8
{9}
н/о н/о +10.0 +7.1 82 +6 +6 1012.8 1011.1
21 22.05 ЮЗ 5-6
{8}
н/о н/о +9.8 +7.4 85 +7 +7 1012.5 1010.9
22 22.05 Ю 6-7
{8}
н/о н/о +9.6 +7.9 89 +6 +6 1012.2 1010.6
23 22.05 Ю 7-8
{8}
н/о н/о +9.7 +8.1 90 +6 +6 1011.7 1010.1
00 23.05 Ю 9-10
{10}
н/о н/о +9.8 +7.6 86 +5 +5 1011.2 1009.6
01 23.05 Ю 10-11
{12}
н/о н/о +9.4 +8.2 92 +5 +5 1010.6 1008.9 0.2
02 23.05 Ю 11-14
{14}
н/о н/о +9.9 +9.1 95 +5 +5 1009.9 1008.3 2
03 23.05 Ю 11-14
{15}
н/о н/о +10.0 +8.4 90 +5 +5 1009.6 1008.0
04 23.05 Ю 11-13
{14}
н/о н/о +10.2 +8.8 91 +5 +5 1009.3 1007.7
05 23.05 Ю 12-14
{16}
н/о н/о +9.9 +9.0 94 +5 +5 1009.1 1007.5 0.3
06 23.05 Ю 11-13
{16}
н/о н/о +10.1 +9.0 93 +5 +5 1009.5 1007.8 +9.3 +10.8 2
07 23.05 Ю 9-11
{14}
н/о н/о +9.9 +9.0 94 +5 +5 1009.7 1008.1 0.2
08 23.05 Ю 9-11
{13}
н/о н/о +10.0 +9.2 95 +6 +6 1009.9 1008.2 2
09 23.05 Ю 6-7
{10}
н/о н/о +10.2 +9.6 96 +7 +7 1009.7 1008.0 1
10 23.05 ЮЗ 11-14
{14}
н/о н/о +10.4 +9.0 91 +6 +6 1010.0 1008.4 0.5
11 23.05 Ю 10-12
{14}
н/о н/о +10.5 +8.8 89 +6 +6 1010.2 1008.6
12 23.05 ЮЗ 10-12
{14}
н/о н/о +10.3 +8.6 89 +6 +6 1010.4 1008.8
13 23.05 Ю 9-11
{12}
н/о н/о +10.1 +9.3 95 +6 +6 1010.4 1008.7
14 23.05 Ю 10-11
{12}
н/о н/о +10.3 +9.4 94 +6 +6 1010.2 1008.5 0.4
15 23.05 Ю 9-12
{12}
н/о н/о +9.9 +9.3 96 +5 +5 1009.9 1008.2 0.4
16 23.05 ЮЗ 8-11
{13}
н/о н/о +10.0 +9.4 96 +6 +6 1009.5 1007.8 0.8
17 23.05 Ю 9-10
{12}
н/о н/о +10.1 +9.3 95 +6 +6 1008.9 1007.3 0.1
18 23.05 Ю 11-14
{14}
н/о н/о +10.0 +9.2 95 +5 +5 1008.7 1007.1 +9.6 +10.7 6
19 23.05 Ю 11-13
{14}
н/о н/о +9.8 +9.2 96 +5 +5 1008.1 1006.4 1
20 23.05 Ю 12-14
{14}
н/о н/о +9.8 +9.4 97 +5 +5 1007.6 1006.0 3
21 23.05 ЮЗ 8-9
{15}
н/о н/о +9.0 +8.4 96 +4 +4 1007.3 1005.6 4
22 23.05 Ю 6-8
{10}
н/о н/о +9.1 +8.7 97 +5 +5 1006.6 1005.0 2
23 23.05 Ю 8-11
{11}
н/о н/о +9.2 +8.6 96 +5 +5 1005.7 1004.0 0.6
00 24.05 ЮЗ 10-12
{15}
н/о н/о +9.1 +7.9 92 +4 +4 1005.0 1003.4 4
01 24.05 ЮЗ 10-12
{12}
н/о н/о +9.1 +8.5 96 +4 +4 1004.3 1002.7
02 24.05 ЮЗ 9-11
{12}
н/о н/о +9.4 +9.1 98 +5 +5 1003.9 1002.2
03 24.05 З 8-9
{11}
н/о н/о +9.5 +9.1 97 +5 +5 1003.7 1002.1
04 24.05 З 6-8
{10}
н/о н/о +9.3 +8.7 96 +5 +5 1003.6 1002.0 0.1
05 24.05 СЗ 7-8
{9}
н/о н/о +9.5 +8.3 92 +5 +5 1003.7 1002.1
06 24.05 З 6-8
{12}
н/о н/о +9.4 +8.3 93 +6 +6 1004.1 1002.5 +8.5 +10.0 15
07 24.05 СЗ 8-10
{10}
н/о н/о +10.1 +8.4 89 +6 +6 1004.4 1002.8
08 24.05 СЗ 5-7
{9}
н/о н/о +11.1 +9.0 87 +8 +8 1004.8 1003.2
09 24.05 З 7-8
{8}
н/о н/о +11.2 +8.6 84 +8 +8 1005.1 1003.5
10 24.05 З 8-10
{10}
н/о н/о +11.4 +8.8 84 +8 +8 1005.2 1003.6
11 24.05 З 10-12
{12}
н/о н/о +11.5 +8.9 84 +8 +8 1005.5 1003.9
12 24.05 З 12-14
{15}
н/о н/о +11.5 +8.7 83 +7 +7 1005.7 1004.1
13 24.05 СЗ 11-14
{16}
н/о н/о +11.7 +8.2 79 +8 +8 1005.9 1004.2
14 24.05 СЗ 12-15
{16}
н/о н/о +11.3 +8.5 83 +7 +7 1006.4 1004.8
15 24.05 СЗ 11-14
{16}
н/о н/о +11.1 +9.0 87 +7 +7 1006.9 1005.3
16 24.05 СЗ 13-16
{16}
н/о н/о +11.1 +8.7 85 +6 +6 1006.5 1004.9
17 24.05 СЗ 14-19
{19}
н/о н/о +10.7 +8.5 86 +6 +6 1006.8 1005.1
18 24.05 СЗ 12-16
{19}
н/о н/о +10.6 +8.7 88 +6 +6 1007.0 1005.4 +9.4 +11.9
19 24.05 СЗ 9-12
{16}
н/о н/о +10.3 +8.7 90 +6 +6 1007.9 1006.3
20 24.05 СЗ 10-12
{12}
н/о н/о +9.8 +8.7 93 +5 +5 1008.3 1006.7
21 24.05 СЗ 8-10
{12}
н/о н/о +9.7 +8.5 92 +5 +5 1008.7 1007.1
22 24.05 СЗ 8-11
{11}
н/о н/о +9.7 +8.3 91 +5 +5 1008.8 1007.2
23 24.05 СЗ 8-10
{10}
н/о н/о +9.4 +8.2 92 +5 +5 1009.2 1007.5
00 25.05 СЗ 9-12
{16}
н/о н/о +9.1 +8.0 93 +4 +4 1009.2 1007.6
01 25.05 СЗ 9-13
{13}
н/о н/о +8.9 +7.7 92 +4 +4 1009.6 1007.9
02 25.05 СЗ 8-12
{12}
н/о н/о +8.8 +7.3 90 +4 +4 1010.1 1008.5
03 25.05 СЗ 7-10
{11}
н/о н/о +8.7 +7.2 90 +4 +4 1010.4 1008.8
04 25.05 С 5-10
{11}
н/о н/о +8.8 +6.9 88 +5 +5 1010.7 1009.1
05 25.05 СЗ 8-10
{10}
н/о н/о +9.0 +7.0 87 +5 +5 1010.4 1008.8
06 25.05 СЗ 9
{13}
н/о н/о +9.6 +7.2 85 +5 +5 1010.8 1009.2 +8.6
07 25.05 С 6-10
{11}
н/о н/о +10.9 +7.2 78 +8 +8 1011.0 1009.3
08 25.05 СЗ 9-11
{11}
н/о н/о +10.3 +8.2 87 +6 +6 1011.1 1009.5
09 25.05 З 10-12
{12}
н/о н/о +10.9 +8.8 87 +7 +7 1011.0 1009.4
10 25.05 З 10-13
{13}
н/о н/о +10.7 +9.0 89 +6 +6 1011.1 1009.5
11 25.05 З 10-12
{12}
н/о н/о +10.6 +8.9 89 +6 +6 1011.0 1009.4
12 25.05 З 9-11
{13}
н/о н/о +10.5 +8.6 88 +6 +6 1011.0 1009.4
13 25.05 СЗ 8-10
{11}
н/о н/о +10.3 +8.4 88 +6 +6 1010.9 1009.2
14 25.05 СЗ 7-9
{10}
н/о н/о +10.4 +8.7 89 +7 +7 1010.8 1009.1
15 25.05 СЗ 9-11
{11}
н/о н/о +10.3 +8.6 89 +6 +6 1010.3 1008.7
16 25.05 З 8-10
{11}
н/о н/о +10.5 +8.8 89 +7 +7 1009.9 1008.2
17 25.05 З 8-10
{11}
н/о н/о +9.9 +8.7 92 +6 +6 1009.5 1007.8
18 25.05 З 9-12
{12}
н/о н/о +9.4 +8.5 94 +5 +5 1009.0 1007.4 +9.4 +11.3
19 25.05 З 11-13
{14}
н/о н/о +9.6 +7.9 89 +5 +5 1008.4 1006.8
20 25.05 З 10-12
{14}
н/о н/о +9.0 +8.1 94 +4 +4 1008.1 1006.5
21 25.05 З 11-14
{15}
н/о н/о +8.9 +8.0 94 +4 +4 1007.6 1006.0
22 25.05 З 10-12
{14}
н/о н/о +8.7 +8.1 96 +4 +4 1007.3 1005.7 0.1
23 25.05 З 11-13
{13}
н/о н/о +8.4 +7.8 96 +3 +3 1006.7 1005.1
00 26.05 З 10-12
{15}
н/о н/о +8.2 +7.9 98 +3 +3 1006.2 1004.5 0.6
01 26.05 СЗ 8-11
{12}
н/о н/о +8.0 +7.6 97 +3 +3 1005.7 1004.0 0.1
02 26.05 СЗ 6-9
{12}
н/о н/о +7.7 +7.1 96 +3 +3 1005.2 1003.6 0.3
03 26.05 СЗ 6-8
{9}
н/о н/о +7.5 +6.6 94 +3 +3 1004.9 1003.3
04 26.05 СЗ 8-10
{10}
н/о н/о +7.7 +6.8 94 +3 +3 1004.2 1002.6
05 26.05 СЗ 9-11
{11}
н/о н/о +8.0 +6.6 91 +3 +3 1003.8 1002.1
06 26.05 СЗ 6-9
{12}
н/о н/о +8.4 +5.3 81 +4 +4 1003.8 1002.2 +7.4 +9.7 1
07 26.05 СЗ 9-10
{11}
н/о н/о +8.6 +5.9 83 +4 +4 1003.7 1002.0
08 26.05 СЗ 8-11
{11}
н/о н/о +8.8 +5.7 81 +4 +4 1003.6 1002.0
09 26.05 З 10-12
{12}
н/о н/о +9.4 +6.0 79 +5 +5 1003.3 1001.7
10 26.05 СЗ 11-13
{13}
н/о н/о +9.5 +5.9 78 +5 +5 1003.6 1001.9

 

Местоположение метеостанции Маяк Lista (Норвегия): широта 58.11 долгота 6.57 высота над уровнем моря 14 м.

В архиве по умолчанию представлена погода на Маяке Lista за последнюю неделю. Архивные данные за месяц целиком и за предыдущие месяцы, начиная с января 2011 года, Вы можете получить, выбрав интересующий диапазон дат из раскрывающегося списка и нажав кнопку "Ввод!".


*Определитесь, кто Вы:
робот инопланетянин человек

Внимание! Время в таблицах - всемирное. Для получения местного времени необходимо прибавить поправку, которая равна 1 ч.

Смотрите также архив погоды в соседних городах и на ближайших метеорологических станциях:

Погода на Маяке Lindesnes (Норвегия) (32 км)
Погода в Эйк-Хоуве (Норвегия) (45 км)
Погода в Консмо-Хойланде (Норвегия) (51 км)
Погода в Мандале (Норвегия) (53 км)
Погода в Айгеройе (Норвегия) (55 км)
Погода на Маяке Obrestad (Норвегия) (84 км)
Погода на Маяке Oksoy (Норвегия) (87 км)
Погода в Кьевике (Норвегия) (89 км)
Погода в Сархейме (Норвегия) (90 км)
Погода в Сирдал-Синнесе (Норвегия) (92 км)

Пояснения к столбцам:

Ветер - указаны скорость ветра в м/с - средняя за 10 мин, порывы в срок и между сроками (в фигурных скобках) и направление, откуда дует ветер: С - северный, СВ - северо-восточный, В - восточный, ЮВ - юго-восточный, Ю - южный, ЮЗ - юго-западный, З - западный, СЗ - северо-западный.
Видимость - горизонтальная дальность видимости в метрах или километрах. При видимости от 1 до 10 км при отсутствии осадков обычно наблюдается дымка, при ухудшении видимости до 1 км и менее - туман. В сухую погоду видимость может ухудшаться дымом, пылью или мглою.
Явления - указаны атмосферные явления, наблюдавшиеся в срок или в последний час перед сроком; фигурными скобками обозначены явления, наблюдавшиеся между сроками (за 1-3 часа до срока); квадратными скобками обозначены град или гололедные отложения с указанием их диаметра в мм.
Облачность - указаны через наклонную черту общая и нижняя облачность в баллах и высота нижней границы облаков в метрах; квадратными скобками обозначены формы облаков: Ci - перистые, Cs - перисто-слоистые, Cc - перисто-кучевые, Ac - высококучевые, As - высокослоистые, Sc - слоисто-кучевые, Ns - слоисто-дождевые, Cu - кучевые, Cb - кучево-дождевые. Подробнее классификацию облаков см. в Атласе облаков (PDF).
T - Температура воздуха - температура, измеренная на высоте 2 м над землей.
Td - Температура точки росы - температура, при понижении до которой содержащийся в воздухе водяной пар достигнет насыщения.
f - Относительная влажность воздуха - влажноcть воздуха, измеренная на высоте 2 м над землей.
Te - Эффективная температура - температура, которую ощущает одетый по сезону человек в тени. Характеристика душности погоды. При расчете учитывается влияние влажности воздуха и скорости ветра на теплоощущения человека.
Tes - Эффективная температура на солнце - температура, которую ощущает человек, с поправкой на солнечный нагрев. Характеристика знойности погоды. Зависит от высоты солнца над горизонтом, облачности и скорости ветра. Ночью, в пасмурную погоду, а также при ветре 12 м/с и более поправка равна нулю.
P - Атмосферное давление - приведенное к уровню моря атмосферное давление.
Po - Атмосферное давление - измеренное на уровне метеостанции атмосферное давление.
Tmin - Минимальная температура - минимум температуры воздуха на высоте 2 м над землей.
Tmax - Максимальная температура - максимум температуры воздуха на высоте 2 м над землей.
R - Количество осадков - Количество выпавших осадков за период времени, мм. При наведении курсора мыши на число - период времени, за который выпало указанное количество осадков.
R24 - Количество осадков - Количество выпавших осадков за 24 часа, мм.
S - Снежный покров - Высота снежного покрова, см. При наведении курсора мыши на число - состояние снежного покрова и степень покрытия местности в баллах.